| time (UTC) | temp C | wind direction | speed KPH | gust KPH | rain 1hr cm | rain 24hr cm | rain mn cm | humidity % | barometer mb |
| 20260906193935 | 20 | 6 | 0.0 | 0.0 | 0.00 | 0.08 | 0.08 | 95 | 1017.6 |
| 20260906193430 | 20 | 27 | 1.6 | 3.2 | 0.00 | 0.08 | 0.08 | 95 | 1017.6 |
| 20260906192925 | 20 | 353 | 1.6 | 4.8 | 0.00 | 0.08 | 0.08 | 95 | 1017.3 |
| 20260906192420 | 21 | 337 | 0.0 | 0.0 | 0.00 | 0.08 | 0.08 | 95 | 1018.3 |
| 20260906191919 | 21 | 350 | 0.0 | 0.0 | 0.00 | 0.08 | 0.08 | 95 | 1017.6 |
| 20260906191414 | 21 | 350 | 0.0 | 1.6 | 0.00 | 0.08 | 0.08 | 95 | 1017.3 |
| 20260906190908 | 21 | 343 | 0.0 | 3.2 | 0.00 | 0.08 | 0.08 | 95 | 1017.6 |
| 20260906190407 | 21 | 338 | 1.6 | 1.6 | 0.00 | 0.08 | 0.08 | 95 | 1017.6 |
| 20260906185902 | 21 | 326 | 0.0 | 0.0 | 0.00 | 0.08 | 0.08 | 95 | 1017.6 |
| 20260906185401 | 21 | 9 | 0.0 | 1.6 | 0.00 | 0.08 | 0.08 | 95 | 1017.6 |
| 20260906184901 | 21 | 356 | 0.0 | 0.0 | 0.00 | 0.08 | 0.08 | 95 | 1018.0 |
| 20260906184355 | 20 | 321 | 0.0 | 0.0 | 0.00 | 0.08 | 0.08 | 95 | 1018.7 |
| 20260906183851 | 20 | 344 | 0.0 | 0.0 | 0.00 | 0.08 | 0.08 | 95 | 1018.3 |
| 20260906183342 | 21 | 333 | 0.0 | 0.0 | 0.00 | 0.08 | 0.08 | 95 | 1018.3 |
| 20260906182841 | 20 | 344 | 0.0 | 0.0 | 0.00 | 0.08 | 0.08 | 95 | 1018.3 |
| 20260906182332 | 20 | 350 | 0.0 | 0.0 | 0.00 | 0.08 | 0.08 | 95 | 1018.3 |
| 20260906181832 | 20 | 343 | 0.0 | 0.0 | 0.00 | 0.08 | 0.08 | 95 | 1018.7 |
| 20260906181329 | 20 | 350 | 0.0 | 3.2 | 0.00 | 0.08 | 0.08 | 95 | 1018.3 |
| 20260906180823 | 20 | 34 | 0.0 | 1.6 | 0.00 | 0.08 | 0.08 | 95 | 1018.0 |
| 20260906180318 | 20 | 12 | 0.0 | 1.6 | 0.00 | 0.08 | 0.08 | 95 | 1018.7 |
| 20260906175815 | 20 | 344 | 0.0 | 0.0 | 0.00 | 0.08 | 0.08 | 95 | 1018.7 |
| 20260906175311 | 20 | 339 | 0.0 | 0.0 | 0.00 | 0.08 | 0.08 | 95 | 1018.7 |
| 20260906174810 | 20 | 29 | 1.6 | 1.6 | 0.00 | 0.08 | 0.08 | 95 | 1018.3 |
| 20260906174310 | 20 | 34 | 0.0 | 1.6 | 0.00 | 0.08 | 0.08 | 95 | 1018.3 |
| 20260906173805 | 20 | 342 | 0.0 | 0.0 | 0.00 | 0.08 | 0.08 | 95 | 1018.7 |
| 20260906173301 | 20 | 344 | 0.0 | 0.0 | 0.00 | 0.08 | 0.08 | 95 | 1018.7 |
| 20260906172759 | 20 | 347 | 0.0 | 0.0 | 0.00 | 0.08 | 0.08 | 95 | 1019.0 |
| 20260906172255 | 20 | 340 | 0.0 | 0.0 | 0.00 | 0.08 | 0.08 | 95 | 1019.0 |
| 20260906171750 | 20 | 359 | 0.0 | 0.0 | 0.00 | 0.08 | 0.08 | 95 | 1018.7 |
| 20260906171245 | 19 | 358 | 0.0 | 0.0 | 0.00 | 0.08 | 0.08 | 95 | 1018.7 |
| 20260906170741 | 19 | 338 | 0.0 | 0.0 | 0.00 | 0.08 | 0.08 | 95 | 1018.7 |
| 20260906170236 | 19 | 333 | 0.0 | 0.0 | 0.00 | 0.08 | 0.08 | 95 | 1018.7 |
| 20260906165733 | 19 | 340 | 0.0 | 0.0 | 0.00 | 0.08 | 0.08 | 95 | 1018.3 |
| 20260906165233 | 19 | 342 | 0.0 | 0.0 | 0.00 | 0.08 | 0.08 | 95 | 1018.0 |
| 20260906164732 | 19 | 349 | 0.0 | 1.6 | 0.00 | 0.08 | 0.08 | 95 | 1018.0 |
| 20260906164227 | 19 | 12 | 0.0 | 1.6 | 0.00 | 0.08 | 0.08 | 95 | 1017.6 |
| 20260906163723 | 18 | 349 | 0.0 | 0.0 | 0.00 | 0.08 | 0.08 | 95 | 1017.6 |
| 20260906163219 | 18 | 339 | 0.0 | 0.0 | 0.00 | 0.08 | 0.08 | 95 | 1017.6 |
| 20260906162715 | 18 | 345 | 0.0 | 0.0 | 0.00 | 0.08 | 0.08 | 95 | 1017.6 |
| 20260906162210 | 18 | 340 | 0.0 | 0.0 | 0.00 | 0.08 | 0.08 | 95 | 1018.0 |
| 20260906161705 | 18 | 345 | 0.0 | 0.0 | 0.00 | 0.08 | 0.08 | 95 | 1018.0 |
| 20260906161204 | 18 | 337 | 0.0 | 0.0 | 0.00 | 0.08 | 0.08 | 95 | 1018.0 |
| 20260906160703 | 18 | 268 | 1.6 | 3.2 | 0.18 | 0.08 | 0.08 | 95 | 1018.0 |
| 20260906160202 | 18 | 346 | 0.0 | 0.0 | 0.18 | 0.08 | 0.08 | 95 | 1017.6 |
| 20260906155700 | 18 | 341 | 0.0 | 0.0 | 0.00 | 0.05 | 0.05 | 95 | 1017.6 |
| 20260906155155 | 18 | 340 | 0.0 | 0.0 | 0.00 | 0.05 | 0.05 | 95 | 1017.6 |
| 20260906154651 | 18 | 342 | 0.0 | 0.0 | 0.00 | 0.05 | 0.05 | 95 | 1017.3 |
| 20260906154150 | 18 | 334 | 0.0 | 0.0 | 0.00 | 0.05 | 0.05 | 95 | 1017.3 |
| 20260906153650 | 18 | 12 | 0.0 | 0.0 | 0.00 | 0.05 | 0.05 | 95 | 1017.0 |
| 20260906153144 | 18 | 340 | 0.0 | 0.0 | 0.00 | 0.05 | 0.05 | 95 | 1016.6 |
| 20260906152639 | 18 | 348 | 0.0 | 0.0 | 0.00 | 0.05 | 0.05 | 95 | 1016.6 |
| 20260906152133 | 18 | 342 | 0.0 | 0.0 | 0.00 | 0.05 | 0.05 | 95 | 1016.6 |
| 20260906151627 | 18 | 344 | 0.0 | 0.0 | 0.00 | 0.05 | 0.05 | 95 | 1016.6 |
| 20260906151124 | 18 | 338 | 0.0 | 0.0 | 0.00 | 0.05 | 0.05 | 95 | 1016.3 |
| 20260906150619 | 18 | 349 | 0.0 | 0.0 | 0.00 | 0.05 | 0.05 | 95 | 1016.0 |
| 20260906150114 | 18 | 7 | 0.0 | 0.0 | 0.00 | 0.05 | 0.05 | 95 | 1016.3 |
| 20260906145613 | 18 | 8 | 0.0 | 0.0 | 0.00 | 0.05 | 0.05 | 95 | 1016.0 |
| 20260906145108 | 17 | 342 | 0.0 | 0.0 | 0.13 | 0.05 | 0.05 | 95 | 1016.3 |
| 20260906144602 | 17 | 344 | 0.0 | 0.0 | 0.00 | 0.03 | 0.03 | 95 | 1016.0 |
| 20260906144057 | 17 | 0 | 0.0 | 1.6 | 0.00 | 0.03 | 0.03 | 95 | 1016.0 |
| 20260906143552 | 17 | 354 | 0.0 | 1.6 | 0.00 | 0.03 | 0.03 | 95 | 1016.0 |
| 20260906143049 | 17 | 345 | 0.0 | 3.2 | 0.00 | 0.03 | 0.03 | 95 | 1016.3 |
| 20260906142542 | 17 | 293 | 0.0 | 1.6 | 0.00 | 0.03 | 0.03 | 95 | 1016.3 |
| 20260906142038 | 17 | 31 | 3.2 | 3.2 | 0.00 | 0.03 | 0.03 | 95 | 1016.3 |
| 20260906141537 | 17 | 354 | 1.6 | 3.2 | 0.00 | 0.03 | 0.03 | 95 | 1016.3 |
| 20260906141032 | 17 | 343 | 0.0 | 3.2 | 0.00 | 0.03 | 0.03 | 95 | 1016.3 |
| 20260906140531 | 17 | 356 | 0.0 | 3.2 | 0.00 | 0.03 | 0.03 | 95 | 1016.0 |
| 20260906140031 | 17 | 324 | 3.2 | 3.2 | 0.00 | 0.03 | 0.03 | 95 | 1016.0 |
| 20260906135528 | 17 | 344 | 0.0 | 3.2 | 0.00 | 0.03 | 0.03 | 95 | 1016.3 |
| 20260906135024 | 17 | 346 | 0.0 | 3.2 | 0.00 | 0.03 | 0.03 | 95 | 1016.3 |
| 20260906134519 | 17 | 297 | 0.0 | 0.0 | 0.00 | 0.03 | 0.03 | 95 | 1016.3 |
| 20260906134014 | 17 | 341 | 0.0 | 0.0 | 0.00 | 0.03 | 0.03 | 95 | 1016.3 |
| 20260906133510 | 17 | 1 | 0.0 | 0.0 | 0.00 | 0.03 | 0.03 | 94 | 1016.3 |
| 20260906133005 | 17 | 349 | 0.0 | 0.0 | 0.00 | 0.03 | 0.03 | 94 | 1016.3 |
| 20260906132500 | 17 | 354 | 0.0 | 0.0 | 0.00 | 0.03 | 0.03 | 94 | 1016.6 |
| 20260906131955 | 17 | 352 | 0.0 | 0.0 | 0.00 | 0.03 | 0.03 | 93 | 1016.6 |
| 20260906131451 | 17 | 339 | 0.0 | 0.0 | 0.00 | 0.03 | 0.03 | 93 | 1016.6 |
| 20260906130946 | 17 | 343 | 0.0 | 0.0 | 0.00 | 0.03 | 0.03 | 93 | 1016.6 |
| 20260906130445 | 18 | 342 | 0.0 | 0.0 | 0.00 | 0.03 | 0.03 | 92 | 1016.3 |
| 20260906125940 | 18 | 358 | 0.0 | 0.0 | 0.00 | 0.03 | 0.03 | 92 | 1016.3 |
| 20260906125437 | 19 | 339 | 0.0 | 0.0 | 0.00 | 0.03 | 0.03 | 92 | 1016.0 |
| 20260906124932 | 19 | 343 | 0.0 | 0.0 | 0.18 | 0.03 | 0.03 | 92 | 1016.3 |
| 20260906124428 | 18 | 333 | 0.0 | 0.0 | 0.18 | 0.03 | 0.03 | 90 | 1016.6 |
| 20260906123927 | 20 | 328 | 0.0 | 0.0 | 0.00 | 0.00 | 0.00 | 90 | 1016.6 |
| 20260906123427 | 20 | 323 | 0.0 | 0.0 | 0.00 | 0.00 | 0.00 | 89 | 1017.0 |
| 20260906122921 | 21 | 325 | 0.0 | 0.0 | 0.00 | 0.00 | 0.00 | 88 | 1016.3 |
| 20260906122416 | 21 | 327 | 0.0 | 0.0 | 0.00 | 0.00 | 0.00 | 86 | 1016.0 |
| 20260906121913 | 21 | 326 | 0.0 | 0.0 | 0.00 | 0.00 | 0.00 | 84 | 1015.3 |
| 20260906121409 | 21 | 327 | 0.0 | 0.0 | 0.00 | 0.00 | 0.00 | 82 | 1015.3 |
| 20260906120905 | 22 | 319 | 0.0 | 0.0 | 0.00 | 0.00 | 0.00 | 79 | 1015.3 |
| 20260906120400 | 22 | 307 | 0.0 | 0.0 | 0.00 | 0.00 | 0.00 | 76 | 1015.3 |
| 20260906115856 | 22 | 323 | 0.0 | 0.0 | 0.00 | 0.00 | 0.00 | 72 | 1015.3 |
| 20260906115352 | 21 | 326 | 0.0 | 0.0 | 0.00 | 0.00 | 0.00 | 73 | 1014.6 |
| 20260906114851 | 21 | 327 | 0.0 | 0.0 | 0.00 | 0.00 | 0.00 | 74 | 1014.6 |
| 20260906114346 | 21 | 328 | 0.0 | 0.0 | 0.00 | 0.00 | 0.00 | 76 | 1014.6 |
| 20260906113841 | 21 | 327 | 0.0 | 0.0 | 0.00 | 0.00 | 0.00 | 77 | 1014.9 |
| 20260906113340 | 21 | 328 | 0.0 | 0.0 | 0.00 | 0.00 | 0.00 | 78 | 1014.6 |
| 20260906112835 | 21 | 327 | 0.0 | 0.0 | 0.00 | 0.00 | 0.00 | 79 | 1014.6 |
| 20260906112332 | 21 | 328 | 0.0 | 0.0 | 0.00 | 0.00 | 0.00 | 79 | 1014.9 |
| 20260906111826 | 21 | 330 | 0.0 | 0.0 | 0.00 | 0.00 | 0.00 | 80 | 1014.9 |
| 20260906111326 | 21 | 327 | 0.0 | 0.0 | 0.00 | 0.00 | 0.00 | 80 | 1014.9 |
| 20260906110821 | 21 | 328 | 0.0 | 0.0 | 0.00 | 0.00 | 0.00 | 80 | 1014.6 |
| 20260906110317 | 21 | 327 | 0.0 | 0.0 | 0.00 | 0.00 | 0.00 | 80 | 1014.9 |
| 20260906105815 | 21 | 327 | 0.0 | 0.0 | 0.00 | 0.00 | 0.00 | 79 | 1014.6 |
| 20260906105311 | 21 | 328 | 0.0 | 0.0 | 0.00 | 0.00 | 0.00 | 79 | 1014.6 |
| 20260906104807 | 21 | 327 | 0.0 | 0.0 | 0.00 | 0.00 | 0.00 | 78 | 1014.9 |
| 20260906104306 | 21 | 330 | 0.0 | 0.0 | 0.00 | 0.00 | 0.00 | 78 | 1014.9 |
| 20260906103804 | 22 | 328 | 0.0 | 0.0 | 0.00 | 0.00 | 0.00 | 77 | 1014.6 |
| 20260906103303 | 22 | 329 | 0.0 | 0.0 | 0.00 | 0.00 | 0.00 | 77 | 1014.6 |
| 20260906102759 | 22 | 327 | 0.0 | 0.0 | 0.00 | 0.00 | 0.00 | 77 | 1014.9 |
| 20260906102258 | 22 | 327 | 0.0 | 0.0 | 0.00 | 0.00 | 0.00 | 76 | 1014.6 |
| 20260906101754 | 22 | 327 | 0.0 | 0.0 | 0.00 | 0.00 | 0.00 | 76 | 1014.6 |
| 20260906101248 | 22 | 325 | 0.0 | 0.0 | 0.00 | 0.00 | 0.00 | 76 | 1014.9 |
| 20260906100744 | 22 | 326 | 0.0 | 0.0 | 0.00 | 0.00 | 0.00 | 75 | 1014.6 |
| 20260906100243 | 22 | 326 | 0.0 | 0.0 | 0.00 | 0.00 | 0.00 | 75 | 1014.9 |
| 20260906095738 | 22 | 327 | 0.0 | 0.0 | 0.00 | 0.00 | 0.00 | 74 | 1014.6 |
| 20260906095233 | 22 | 327 | 0.0 | 0.0 | 0.00 | 0.00 | 0.00 | 75 | 1014.9 |
| 20260906094733 | 21 | 328 | 0.0 | 0.0 | 0.00 | 0.00 | 0.00 | 74 | 1014.9 |
| 20260906094228 | 21 | 325 | 0.0 | 0.0 | 0.00 | 0.00 | 0.00 | 74 | 1014.9 |
| 20260906093725 | 21 | 326 | 0.0 | 0.0 | 0.00 | 0.00 | 0.00 | 76 | 1014.9 |
| 20260906093220 | 21 | 326 | 0.0 | 0.0 | 0.00 | 0.00 | 0.00 | 77 | 1014.9 |
| 20260906092715 | 21 | 327 | 0.0 | 0.0 | 0.00 | 0.00 | 0.00 | 79 | 1014.9 |
| 20260906092214 | 21 | 326 | 0.0 | 0.0 | 0.00 | 0.00 | 0.00 | 80 | 1014.6 |
| 20260906091711 | 21 | 326 | 0.0 | 0.0 | 0.00 | 0.00 | 0.00 | 81 | 1014.9 |
| 20260906091207 | 21 | 328 | 0.0 | 0.0 | 0.00 | 0.00 | 0.00 | 83 | 1014.9 |
| 20260906090703 | 21 | 329 | 0.0 | 0.0 | 0.00 | 0.00 | 0.00 | 83 | 1014.6 |
| 20260906090202 | 21 | 329 | 0.0 | 0.0 | 0.00 | 0.00 | 0.00 | 83 | 1014.9 |
| 20260906085701 | 21 | 327 | 0.0 | 0.0 | 0.00 | 0.00 | 0.00 | 84 | 1014.6 |
| 20260906085200 | 21 | 330 | 0.0 | 0.0 | 0.00 | 0.00 | 0.00 | 84 | 1014.9 |
| 20260906084655 | 21 | 331 | 0.0 | 0.0 | 0.00 | 0.00 | 0.00 | 84 | 1014.9 |
| 20260906084155 | 21 | 327 | 0.0 | 0.0 | 0.00 | 0.00 | 0.00 | 85 | 1014.9 |
| 20260906083649 | 21 | 330 | 0.0 | 0.0 | 0.00 | 0.00 | 0.00 | 85 | 1014.9 |
| 20260906083145 | 21 | 328 | 0.0 | 0.0 | 0.00 | 0.00 | 0.00 | 86 | 1014.9 |
| 20260906082640 | 21 | 330 | 0.0 | 0.0 | 0.00 | 0.00 | 0.00 | 86 | 1014.9 |
| 20260906082136 | 21 | 329 | 0.0 | 0.0 | 0.00 | 0.00 | 0.00 | 86 | 1014.9 |
| 20260906081632 | 21 | 331 | 0.0 | 0.0 | 0.00 | 0.00 | 0.00 | 87 | 1014.9 |
| 20260906081126 | 21 | 328 | 0.0 | 0.0 | 0.00 | 0.00 | 0.00 | 87 | 1014.9 |
| 20260906080623 | 21 | 330 | 0.0 | 0.0 | 0.00 | 0.00 | 0.00 | 87 | 1014.9 |
| 20260906080119 | 21 | 331 | 0.0 | 0.0 | 0.00 | 0.00 | 0.00 | 88 | 1014.9 |
| 20260906075618 | 21 | 331 | 0.0 | 0.0 | 0.00 | 0.00 | 0.00 | 88 | 1014.9 |
| 20260906075113 | 21 | 331 | 0.0 | 0.0 | 0.00 | 0.00 | 0.00 | 88 | 1015.3 |
| 20260906074609 | 21 | 329 | 0.0 | 0.0 | 0.00 | 0.00 | 0.00 | 88 | 1015.3 |
| 20260906074108 | 21 | 329 | 0.0 | 0.0 | 0.00 | 0.00 | 0.00 | 88 | 1015.3 |
| 20260906073608 | 21 | 330 | 0.0 | 0.0 | 0.00 | 0.00 | 0.00 | 88 | 1014.9 |
| 20260906073104 | 21 | 328 | 0.0 | 0.0 | 0.00 | 0.00 | 0.00 | 88 | 1015.3 |
| 20260906072558 | 21 | 329 | 0.0 | 0.0 | 0.00 | 0.00 | 0.00 | 88 | 1015.3 |
| 20260906072054 | 21 | 328 | 0.0 | 0.0 | 0.00 | 0.00 | 0.00 | 88 | 1014.9 |
| 20260906071550 | 21 | 328 | 0.0 | 0.0 | 0.00 | 0.00 | 0.00 | 88 | 1014.9 |
| 20260906071039 | 21 | 327 | 0.0 | 0.0 | 0.00 | 0.00 | 0.00 | 88 | 1014.9 |
| 20260906070536 | 21 | 328 | 0.0 | 0.0 | 0.00 | 0.00 | 0.00 | 88 | 1014.9 |
| 20260906070032 | 21 | 328 | 0.0 | 0.0 | 0.00 | 0.00 | 0.00 | 88 | 1015.3 |
| 20260906065531 | 21 | 327 | 0.0 | 0.0 | 0.00 | 0.00 | 0.00 | 88 | 1014.9 |
| 20260906065027 | 21 | 327 | 0.0 | 0.0 | 0.00 | 0.00 | 0.00 | 88 | 1014.9 |
| 20260906064522 | 21 | 330 | 0.0 | 0.0 | 0.00 | 0.00 | 0.00 | 88 | 1014.9 |
| 20260906064017 | 21 | 330 | 0.0 | 0.0 | 0.00 | 0.00 | 0.00 | 87 | 1014.9 |
| 20260906063512 | 21 | 328 | 0.0 | 0.0 | 0.00 | 0.00 | 0.00 | 87 | 1014.9 |
| 20260906063008 | 21 | 327 | 0.0 | 0.0 | 0.00 | 0.00 | 0.00 | 87 | 1014.9 |
| 20260906062503 | 21 | 327 | 0.0 | 0.0 | 0.00 | 0.00 | 0.00 | 87 | 1014.9 |
| 20260906061957 | 21 | 327 | 0.0 | 0.0 | 0.00 | 0.00 | 0.00 | 87 | 1015.3 |
| 20260906061453 | 21 | 327 | 0.0 | 0.0 | 0.00 | 0.00 | 0.00 | 87 | 1015.3 |
| 20260906060947 | 21 | 326 | 0.0 | 0.0 | 0.00 | 0.00 | 0.00 | 86 | 1015.3 |
| 20260906060444 | 21 | 326 | 0.0 | 0.0 | 0.00 | 0.00 | 0.00 | 86 | 1014.9 |
| 20260906055941 | 21 | 326 | 0.0 | 0.0 | 0.00 | 0.00 | 0.00 | 86 | 1014.9 |
| 20260906055436 | 21 | 326 | 0.0 | 0.0 | 0.00 | 0.00 | 0.00 | 86 | 1015.3 |
| 20260906054932 | 21 | 327 | 0.0 | 0.0 | 0.00 | 0.00 | 0.00 | 86 | 1015.3 |
| 20260906054426 | 21 | 326 | 0.0 | 0.0 | 0.00 | 0.00 | 0.00 | 86 | 1015.3 |
| 20260906053922 | 22 | 322 | 0.0 | 0.0 | 0.00 | 0.00 | 0.00 | 86 | 1015.3 |
| 20260906053418 | 22 | 317 | 0.0 | 0.0 | 0.00 | 0.00 | 0.00 | 85 | 1015.3 |
| 20260906052914 | 22 | 284 | 0.0 | 0.0 | 0.00 | 0.00 | 0.00 | 85 | 1015.3 |
| 20260906052410 | 22 | 319 | 0.0 | 0.0 | 0.00 | 0.00 | 0.00 | 85 | 1015.3 |
| 20260906051907 | 22 | 319 | 0.0 | 0.0 | 0.00 | 0.00 | 0.00 | 84 | 1015.6 |
| 20260906051406 | 22 | 321 | 0.0 | 0.0 | 0.00 | 0.00 | 0.00 | 84 | 1015.6 |
| 20260906050902 | 22 | 318 | 0.0 | 0.0 | 0.00 | 0.00 | 0.00 | 83 | 1015.3 |
| 20260906050357 | 22 | 311 | 0.0 | 0.0 | 0.00 | 0.00 | 0.00 | 83 | 1015.3 |
| 20260906045855 | 22 | 317 | 0.0 | 0.0 | 0.00 | 0.00 | 0.00 | 82 | 1015.3 |
| 20260906045349 | 22 | 314 | 0.0 | 0.0 | 0.00 | 0.00 | 0.00 | 81 | 1015.3 |
| 20260906044846 | 22 | 318 | 0.0 | 0.0 | 0.00 | 0.00 | 0.00 | 81 | 1015.3 |
| 20260906044346 | 22 | 319 | 0.0 | 0.0 | 0.00 | 0.00 | 0.00 | 81 | 1015.3 |
| 20260906043842 | 22 | 319 | 0.0 | 0.0 | 0.00 | 0.00 | 0.00 | 80 | 1015.3 |
| 20260906043338 | 22 | 317 | 0.0 | 0.0 | 0.00 | 0.00 | 0.00 | 80 | 1015.3 |
| 20260906042833 | 22 | 320 | 0.0 | 0.0 | 0.00 | 0.00 | 0.00 | 80 | 1015.6 |
| 20260906042331 | 22 | 322 | 0.0 | 0.0 | 0.00 | 0.00 | 0.00 | 80 | 1015.6 |
| 20260906041827 | 22 | 322 | 0.0 | 0.0 | 0.00 | 0.00 | 0.00 | 79 | 1015.6 |
| 20260906041323 | 22 | 321 | 0.0 | 0.0 | 0.00 | 0.00 | 0.00 | 79 | 1015.3 |
| 20260906040823 | 22 | 319 | 0.0 | 0.0 | 0.00 | 0.00 | 0.00 | 79 | 1015.6 |
| 20260906040318 | 22 | 321 | 0.0 | 0.0 | 0.00 | 0.00 | 0.00 | 79 | 1015.3 |
| 20260906035813 | 22 | 320 | 0.0 | 0.0 | 0.00 | 0.00 | 0.00 | 78 | 1015.3 |
| 20260906035308 | 22 | 322 | 0.0 | 0.0 | 0.00 | 0.00 | 0.00 | 77 | 1015.3 |
| 20260906034803 | 22 | 323 | 0.0 | 0.0 | 0.00 | 0.00 | 0.00 | 76 | 1014.9 |
| 20260906034258 | 22 | 322 | 0.0 | 0.0 | 0.00 | 0.00 | 0.00 | 76 | 1014.9 |
| 20260906033754 | 22 | 320 | 0.0 | 0.0 | 0.00 | 0.00 | 0.00 | 75 | 1014.9 |
| 20260906033253 | 22 | 310 | 0.0 | 0.0 | 0.00 | 0.00 | 0.00 | 75 | 1014.9 |
| 20260906032750 | 22 | 317 | 0.0 | 0.0 | 0.00 | 0.00 | 0.00 | 74 | 1014.9 |
| 20260906032250 | 22 | 324 | 0.0 | 0.0 | 0.00 | 0.00 | 0.00 | 74 | 1014.9 |
| 20260906031745 | 23 | 292 | 0.0 | 1.6 | 0.00 | 0.00 | 0.00 | 73 | 1014.9 |
| 20260906031241 | 23 | 321 | 0.0 | 0.0 | 0.00 | 0.00 | 0.00 | 74 | 1014.6 |
| 20260906030740 | 23 | 319 | 0.0 | 0.0 | 0.00 | 0.00 | 0.00 | 74 | 1014.9 |
| 20260906030236 | 23 | 299 | 1.6 | 4.8 | 0.00 | 0.00 | 0.00 | 73 | 1014.6 |
| 20260906025735 | 23 | 289 | 1.6 | 1.6 | 0.00 | 0.00 | 0.00 | 72 | 1014.9 |
| 20260906025229 | 23 | 336 | 0.0 | 0.0 | 0.00 | 0.00 | 0.00 | 72 | 1014.6 |
| 20260906024728 | 23 | 349 | 0.0 | 1.6 | 0.00 | 0.00 | 0.00 | 72 | 1014.6 |
| 20260906024228 | 23 | 324 | 1.6 | 3.2 | 0.00 | 0.00 | 0.00 | 72 | 1014.6 |
| 20260906023724 | 23 | 269 | 3.2 | 3.2 | 0.00 | 0.00 | 0.00 | 71 | 1014.9 |
| 20260906023219 | 23 | 296 | 1.6 | 1.6 | 0.00 | 0.00 | 0.00 | 69 | 1014.9 |
| 20260906022714 | 23 | 333 | 1.6 | 3.2 | 0.00 | 0.00 | 0.00 | 68 | 1014.9 |
| 20260906022209 | 23 | 334 | 1.6 | 3.2 | 0.00 | 0.00 | 0.00 | 66 | 1014.9 |
| 20260906021706 | 23 | 328 | 0.0 | 3.2 | 0.00 | 0.00 | 0.00 | 64 | 1014.9 |
| 20260906021204 | 23 | 281 | 3.2 | 4.8 | 0.00 | 0.00 | 0.00 | 63 | 1014.9 |
| 20260906020659 | 24 | 325 | 1.6 | 3.2 | 0.00 | 0.00 | 0.00 | 63 | 1014.9 |
| 20260906020154 | 24 | 308 | 3.2 | 4.8 | 0.00 | 0.00 | 0.00 | 61 | 1014.9 |
| 20260906015648 | 24 | 319 | 1.6 | 4.8 | 0.00 | 0.00 | 0.00 | 61 | 1014.6 |
| 20260906015147 | 25 | 301 | 1.6 | 6.4 | 0.00 | 0.00 | 0.00 | 61 | 1014.6 |
| 20260906014647 | 25 | 338 | 0.0 | 1.6 | 0.00 | 0.00 | 0.00 | 64 | 1014.6 |
| 20260906014143 | 25 | 324 | 0.0 | 4.8 | 0.00 | 0.00 | 0.00 | 62 | 1014.6 |
| 20260906013638 | 25 | 256 | 4.8 | 6.4 | 0.00 | 0.00 | 0.00 | 64 | 1014.9 |
| 20260906013134 | 25 | 307 | 4.8 | 11.3 | 0.00 | 0.00 | 0.00 | 61 | 1014.9 |
| 20260906012633 | 25 | 236 | 4.8 | 6.4 | 0.00 | 0.00 | 0.00 | 62 | 1014.9 |
| 20260906012128 | 25 | 344 | 3.2 | 9.7 | 0.00 | 0.00 | 0.00 | 63 | 1014.9 |
| 20260906011624 | 25 | 332 | 1.6 | 3.2 | 0.00 | 0.00 | 0.00 | 62 | 1014.9 |
| 20260906011119 | 26 | 340 | 1.6 | 6.4 | 0.00 | 0.00 | 0.00 | 60 | 1014.9 |
| 20260906010614 | 25 | 261 | 3.2 | 6.4 | 0.00 | 0.00 | 0.00 | 56 | 1014.6 |
| 20260906010110 | 26 | 178 | 6.4 | 9.7 | 0.00 | 0.00 | 0.00 | 52 | 1014.6 |
| 20260906005610 | 26 | 311 | 3.2 | 3.2 | 0.00 | 0.00 | 0.00 | 52 | 1014.6 |
| 20260906005109 | 26 | 278 | 3.2 | 4.8 | 0.00 | 0.00 | 0.00 | 54 | 1014.6 |
| 20260906004608 | 26 | 300 | 3.2 | 6.4 | 0.00 | 0.00 | 0.00 | 54 | 1014.6 |
| 20260906004103 | 26 | 212 | 3.2 | 6.4 | 0.00 | 0.00 | 0.00 | 52 | 1014.6 |
| 20260906003558 | 26 | 183 | 3.2 | 6.4 | 0.00 | 0.00 | 0.00 | 53 | 1014.6 |
| 20260906003054 | 26 | 16 | 3.2 | 4.8 | 0.00 | 0.00 | 0.00 | 52 | 1014.6 |
| 20260906002549 | 25 | 295 | 1.6 | 4.8 | 0.00 | 0.00 | 0.00 | 58 | 1014.6 |
| 20260906002044 | 26 | 263 | 4.8 | 4.8 | 0.00 | 0.00 | 0.00 | 63 | 1014.6 |
| 20260906001539 | 27 | 271 | 3.2 | 6.4 | 0.00 | 0.00 | 0.00 | 60 | 1014.6 |
| 20260906001033 | 26 | 235 | 6.4 | 9.7 | 0.00 | 0.00 | 0.00 | 63 | 1014.9 |
| 20260906000529 | 26 | 263 | 4.8 | 9.7 | 0.00 | 0.00 | 0.00 | 63 | 1014.9 |
| 20260906000024 | 26 | 261 | 3.2 | 11.3 | 0.00 | 0.00 | 0.00 | 62 | 1014.6 |
| 20260905235518 | 27 | 278 | 6.4 | 9.7 | 0.00 | 0.00 | 0.00 | 60 | 1014.6 |
| 20260905235013 | 26 | 218 | 3.2 | 6.4 | 0.00 | 0.00 | 0.00 | 61 | 1014.6 |
| 20260905234508 | 26 | 240 | 4.8 | 11.3 | 0.00 | 0.00 | 0.00 | 63 | 1014.6 |
| 20260905234002 | 26 | 309 | 6.4 | 9.7 | 0.00 | 0.00 | 0.00 | 64 | 1014.6 |
| 20260905233458 | 26 | 298 | 6.4 | 9.7 | 0.00 | 0.00 | 0.00 | 65 | 1014.6 |
| 20260905232956 | 26 | 1 | 3.2 | 6.4 | 0.00 | 0.00 | 0.00 | 64 | 1014.6 |
| 20260905232453 | 26 | 248 | 3.2 | 11.3 | 0.00 | 0.00 | 0.00 | 63 | 1014.6 |
| 20260905231948 | 27 | 255 | 6.4 | 9.7 | 0.00 | 0.00 | 0.00 | 63 | 1014.9 |
| 20260905231444 | 26 | 293 | 3.2 | 6.4 | 0.00 | 0.00 | 0.00 | 64 | 1014.9 |
| 20260905230940 | 26 | 278 | 4.8 | 9.7 | 0.00 | 0.00 | 0.00 | 63 | 1014.9 |
| 20260905230438 | 27 | 253 | 3.2 | 9.7 | 0.00 | 0.00 | 0.00 | 62 | 1014.6 |
| 20260905225937 | 27 | 307 | 3.2 | 9.7 | 0.00 | 0.00 | 0.00 | 63 | 1014.9 |
| 20260905225432 | 27 | 348 | 3.2 | 11.3 | 0.00 | 0.00 | 0.00 | 61 | 1014.6 |
| 20260905224927 | 27 | 284 | 6.4 | 11.3 | 0.00 | 0.00 | 0.00 | 62 | 1014.9 |
| 20260905224423 | 27 | 210 | 6.4 | 6.4 | 0.00 | 0.00 | 0.00 | 61 | 1014.9 |
| 20260905223922 | 27 | 248 | 8.0 | 9.7 | 0.00 | 0.00 | 0.00 | 63 | 1014.9 |
| 20260905223421 | 27 | 246 | 6.4 | 11.3 | 0.00 | 0.00 | 0.00 | 62 | 1014.9 |
| 20260905222920 | 27 | 248 | 6.4 | 9.7 | 0.00 | 0.00 | 0.00 | 62 | 1014.9 |
| 20260905222420 | 27 | 262 | 4.8 | 6.4 | 0.00 | 0.00 | 0.00 | 62 | 1014.9 |
| 20260905221916 | 28 | 218 | 3.2 | 9.7 | 0.00 | 0.00 | 0.00 | 60 | 1014.9 |
| 20260905221413 | 27 | 301 | 1.6 | 9.7 | 0.00 | 0.00 | 0.00 | 62 | 1015.3 |
| 20260905220909 | 27 | 225 | 6.4 | 9.7 | 0.00 | 0.00 | 0.00 | 63 | 1014.9 |
| 20260905220404 | 27 | 264 | 3.2 | 9.7 | 0.00 | 0.00 | 0.00 | 62 | 1014.9 |
| 20260905215903 | 27 | 269 | 4.8 | 6.4 | 0.00 | 0.00 | 0.00 | 61 | 1015.6 |
| 20260905215359 | 27 | 224 | 6.4 | 6.4 | 0.00 | 0.00 | 0.00 | 61 | 1015.3 |
| 20260905214855 | 28 | 271 | 4.8 | 11.3 | 0.00 | 0.00 | 0.00 | 60 | 1015.3 |
| 20260905214350 | 27 | 207 | 6.4 | 9.7 | 0.00 | 0.00 | 0.00 | 60 | 1015.3 |
| 20260905213845 | 27 | 226 | 6.4 | 6.4 | 0.00 | 0.00 | 0.00 | 60 | 1015.3 |
| 20260905213341 | 28 | 255 | 6.4 | 6.4 | 0.00 | 0.00 | 0.00 | 57 | 1015.6 |
| 20260905212836 | 27 | 310 | 3.2 | 4.8 | 0.00 | 0.00 | 0.00 | 60 | 1015.6 |
| 20260905212336 | 28 | 251 | 8.0 | 11.3 | 0.00 | 0.00 | 0.00 | 59 | 1015.6 |
| 20260905211830 | 28 | 276 | 6.4 | 9.7 | 0.00 | 0.00 | 0.00 | 58 | 1015.6 |
| 20260905211326 | 27 | 258 | 4.8 | 9.7 | 0.00 | 0.00 | 0.00 | 61 | 1015.6 |
| 20260905210822 | 28 | 299 | 6.4 | 9.7 | 0.00 | 0.00 | 0.00 | 59 | 1016.0 |
| 20260905210322 | 27 | 238 | 3.2 | 9.7 | 0.00 | 0.00 | 0.00 | 61 | 1016.0 |
| 20260905205821 | 27 | 211 | 4.8 | 9.7 | 0.00 | 0.00 | 0.00 | 62 | 1015.6 |
| 20260905205316 | 27 | 268 | 6.4 | 9.7 | 0.00 | 0.00 | 0.00 | 60 | 1016.0 |
| 20260905204815 | 27 | 248 | 6.4 | 9.7 | 0.00 | 0.00 | 0.00 | 62 | 1016.0 |
| 20260905204311 | 27 | 339 | 1.6 | 6.4 | 0.00 | 0.00 | 0.00 | 62 | 1016.0 |
| 20260905203810 | 27 | 155 | 1.6 | 9.7 | 0.00 | 0.00 | 0.00 | 62 | 1016.3 |
| 20260905203306 | 27 | 334 | 1.6 | 4.8 | 0.00 | 0.00 | 0.00 | 62 | 1016.0 |
| 20260905202801 | 27 | 263 | 4.8 | 9.7 | 0.00 | 0.00 | 0.00 | 63 | 1016.3 |
| 20260905202256 | 27 | 239 | 4.8 | 9.7 | 0.00 | 0.00 | 0.00 | 64 | 1016.0 |
| 20260905201752 | 27 | 278 | 8.0 | 9.7 | 0.00 | 0.00 | 0.00 | 61 | 1016.0 |
| 20260905201247 | 27 | 318 | 3.2 | 4.8 | 0.00 | 0.00 | 0.00 | 63 | 1016.3 |
| 20260905200742 | 27 | 337 | 3.2 | 4.8 | 0.00 | 0.00 | 0.00 | 62 | 1016.3 |
| 20260905200237 | 27 | 232 | 9.7 | 11.3 | 0.00 | 0.00 | 0.00 | 62 | 1016.3 |
| 20260905195735 | 27 | 203 | 6.4 | 9.7 | 0.00 | 0.00 | 0.00 | 61 | 1016.3 |
| 20260905195230 | 27 | 307 | 1.6 | 11.3 | 0.00 | 0.00 | 0.00 | 63 | 1016.6 |
| 20260905194726 | 27 | 292 | 3.2 | 6.4 | 0.00 | 0.00 | 0.00 | 62 | 1016.6 |